CST,Max TemperatureF,Mean TemperatureF,Min TemperatureF,Max Dew PointF,MeanDew PointF,Min DewpointF,Max Humidity, Mean Humidity, Min Humidity, Max Sea Level PressureIn, Mean Sea Level PressureIn, Min Sea Level PressureIn, Max VisibilityMiles, Mean VisibilityMiles, Min VisibilityMiles, Max Wind SpeedMPH, Mean Wind SpeedMPH, Max Gust SpeedMPH,PrecipitationIn, CloudCover, Events, WindDirDegrees
2011-11-1,72,59,46,41,38,36,71,51,31,30.16,30.10,30.03,10,10,10,21,9,25,0.00,0,,151
2011-11-2,71,59,47,57,48,37,93,70,47,30.10,29.98,29.83,10,8,2,22,11,31,0.32,3,Rain,174
2011-11-3,47,43,38,52,36,31,92,73,53,30.21,30.05,29.88,10,9,6,23,14,35,T,8,Rain,298
2011-11-4,58,48,37,43,37,31,96,76,55,30.27,30.20,30.16,10,10,6,14,6,16,0.00,1,,56
2011-11-5,61,53,44,45,43,41,92,71,49,30.16,30.08,29.97,10,8,6,25,12,31,0.00,4,,144
2011-11-6,65,61,56,54,51,44,86,76,66,30.12,30.04,29.96,10,10,8,24,13,33,0.00,6,,148
2011-11-7,70,65,59,59,57,54,90,76,61,30.18,30.07,29.94,10,9,5,20,11,29,0.01,7,Rain,146
2011-11-8,66,59,51,59,55,46,100,87,73,30.02,29.92,29.83,10,5,1,23,9,31,2.32,7,Rain-Thunderstorm,143
2011-11-9,54,47,39,45,35,28,92,67,41,30.32,30.14,29.90,10,10,8,22,11,35,T,5,Rain,292
2011-11-10,55,45,35,29,24,19,70,49,28,30.34,30.27,30.17,10,10,10,18,7,28,0.00,0,,286
2011-11-11,66,50,34,29,26,21,75,47,19,30.14,30.02,29.94,10,10,10,25,10,35,0.00,0,,201
2011-11-12,62,55,47,52,38,23,72,51,29,29.94,29.84,29.73,10,10,10,26,13,38,0.00,0,,170
2011-11-13,77,69,61,57,52,47,72,54,36,29.71,29.66,29.62,10,10,10,24,13,37,0.00,0,,200
2011-11-14,79,65,51,61,54,46,89,66,43,29.84,29.73,29.64,10,10,4,24,11,40,0.18,3,Rain,233
2011-11-15,64,59,53,59,56,51,100,89,78,29.85,29.80,29.75,10,6,0,12,6,14,0.50,8,Fog-Rain,115
2011-11-16,57,45,33,57,36,16,100,63,26,30.33,30.02,29.83,10,8,1,18,9,26,T,4,Rain,347
2011-11-17,50,39,28,28,23,14,89,57,24,30.44,30.35,30.24,10,10,7,15,5,17,0.00,0,,261
2011-11-18,57,47,37,28,22,17,54,39,24,30.23,30.10,29.94,10,10,10,24,15,30,0.00,1,,146
2011-11-19,63,57,50,58,48,29,90,66,42,29.98,29.91,29.85,10,9,8,21,13,29,0.00,5,,173
2011-11-20,62,53,44,61,51,44,100,92,84,30.19,30.09,29.96,8,2,0,14,4,18,0.40,8,Fog-Rain-Thunderstorm,329
2011-11-21,50,47,43,50,46,43,100,96,92,30.19,30.09,29.93,9,3,0,12,3,15,1.64,8,Fog-Rain-Thunderstorm,31
2011-11-22,52,49,45,52,48,43,100,93,86,30.18,29.93,29.81,10,5,0,20,9,26,0.30,8,Fog-Rain,293
2011-11-23,50,46,42,44,43,42,100,90,80,30.31,30.27,30.19,7,4,0,13,5,15,0.00,6,Fog,140
2011-11-24,63,53,42,46,43,42,100,74,48,30.34,30.26,30.15,10,6,0,21,12,24,0.00,2,Fog,140
2011-11-25,62,51,40,48,44,40,100,76,51,30.14,30.04,29.94,10,9,5,22,12,28,0.00,1,,150
2011-11-26,60,50,40,57,48,35,100,86,72,30.05,29.90,29.79,10,8,2,25,13,35,0.18,7,Rain,212
2011-11-27,41,37,33,34,28,25,79,72,64,30.18,30.13,30.02,10,10,9,21,11,29,T,8,Rain,334
2011-11-28,38,35,31,28,26,25,82,76,69,30.12,30.03,29.94,10,10,9,20,10,28,0.00,7,,327
2011-11-29,49,39,29,30,25,18,85,66,47,30.21,30.09,29.94,10,10,8,20,12,29,0.00,0,,301
2011-11-30,51,40,28,19,15,-3,69,40,11,30.23,30.17,30.09,10,10,10,13,6,15,0.00,0,,183